This is the latest recevied weather packets stored in our database for station/object WD9U. If no packets are shown the sender has not sent any weather packets the latest 10 day(s).
| Time | Temp. | Humidity | Pressure | Rain* | Wind** | Luminosity | Snow |
|---|---|---|---|---|---|---|---|
| 1778091193 | 5.56° C | 45% | 1015 hPa | 0 mm | - | 182 W/m² | - |
| 1778090833 | 5.56° C | 46% | 1014.9 hPa | 0 mm | - | 204 W/m² | - |
| 1778090717 | 5.56° C | 46% | 1014.9 hPa | 0 mm | - | 204 W/m² | - |
| 1778090473 | 5.56° C | 45% | 1015 hPa | 0 mm | - | 214 W/m² | - |
| 1778090113 | 5.56° C | 46% | 1014.9 hPa | 0 mm | - | 235 W/m² | - |
| 1778089753 | 5.56° C | 47% | 1015 hPa | 0 mm | - | 257 W/m² | - |
| 1778089516 | 5.56° C | 48% | 1015 hPa | 0 mm | - | 206 W/m² | - |
| 1778089393 | 5.56° C | 46% | 1015.1 hPa | 0 mm | - | 184 W/m² | - |
| 1778089033 | 5.56° C | 45% | 1015.1 hPa | 0 mm | - | 198 W/m² | - |
| 1778088673 | 5.56° C | 45% | 1015.1 hPa | 0 mm | - | 227 W/m² | - |
| 1778088313 | 5.56° C | 45% | 1015 hPa | 0 mm | - | 220 W/m² | - |
| 1778087953 | 5.56° C | 47% | 1015.1 hPa | 0 mm | - | 279 W/m² | - |
| 1778087593 | 5.56° C | 46% | 1015.2 hPa | 0 mm | - | 317 W/m² | - |
| 1778087233 | 5° C | 46% | 1015.3 hPa | 0 mm | - | 250 W/m² | - |
| 1778087116 | 5° C | 47% | 1015.3 hPa | 0 mm | - | 234 W/m² | - |
| 1778086872 | 5° C | 45% | 1015.2 hPa | 0 mm | - | 218 W/m² | - |
| 1778086512 | 5° C | 46% | 1015.3 hPa | 0 mm | - | 237 W/m² | - |
| 1778086152 | 5° C | 44% | 1015.3 hPa | 0 mm | - | 230 W/m² | - |
| 1778085915 | 5° C | 47% | 1015.2 hPa | 0 mm | - | 244 W/m² | - |
| 1778085792 | 5° C | 46% | 1015.3 hPa | 0 mm | - | 228 W/m² | - |
| 1778085432 | 5° C | 48% | 1015.3 hPa | 0 mm | - | 251 W/m² | - |
| 1778085072 | 4.44° C | 49% | 1015.3 hPa | 0 mm | - | 282 W/m² | - |
| 1778084712 | 4.44° C | 49% | 1015.3 hPa | 0 mm | - | 226 W/m² | - |
| 1778084352 | 4.44° C | 50% | 1015.4 hPa | 0 mm | - | 168 W/m² | - |
| 1778083992 | 4.44° C | 47% | 1015.4 hPa | 0 mm | - | 164 W/m² | - |
* Rain latest hour (hover to see other rain measurements)
** Current wind speed in m/s (hover to see current wind gust speed)